Weather History for South Lake Tahoe, CA

Change the Weather History Date:

Sunday, January 19, 2014

  Actual Average Record
Temperature  
Mean Temperature 38 °F 30 °F  
Max Temperature 58 °F 43 °F 58 °F (2014)
Min Temperature 17 °F 16 °F -2 °F (1990)
Degree Days  
Heating Degree Days 27 35  
Month to date heating degree days 537 672  
Since 1 July heating degree days 3495 3855  
Cooling Degree Days 0 0  
Month to date cooling degree days 0 0  
Year to date cooling degree days 0 0  
Moisture  
Dew Point 18 °F    
Average Humidity 47    
Maximum Humidity 81    
Minimum Humidity 13    
Precipitation  
Precipitation 0.00 in - 2.40 in (1969)
Month to date precipitation 0.17  
Year to date precipitation 0.17  
Sea Level Pressure  
Sea Level Pressure 30.28 in    
Wind  
Wind Speed 3 mph (South)    
Max Wind Speed 12 mph    
Max Gust Speed 15 mph    
Visibility 10 miles    
Events      
T = Trace of Precipitation, MM = Missing Value Source: NWS Daily Summary

Daily Weather History Graph

Daily Weather History Graph

Search for Another Location

Airport:

Trip Planner

Search our weather history database for the weather conditions in past years. The results will help you decide how hot, cold, wet, or windy it might be!

Date:

Astronomy

Jan. 19, 2014 Rise Set
Actual Time 7:15 AM PST 5:06 PM PST
Civil Twilight 6:46 AM PST 5:35 PM PST
Nautical Twilight 6:13 AM PST 6:08 PM PST
Astronomical Twilight 5:41 AM PST 6:40 PM PST
Moon 8:47 PM PST (1/19) 8:50 AM PST (1/19)
Length of Visible Light 10h 49m
Length of Day
9h 51m
Waning Gibbous, 89% of the Moon is Illuminated
Jan 19
Waning Gibbous
Jan 23
Last Quarter
Jan 30
New
Feb 6
First Quarter
Feb 14
Full

Hourly Weather History & Observations

Time (PST) Temp. Windchill Dew Point Humidity Pressure Visibility Wind Dir Wind Speed Gust Speed Precip Events Conditions
12:53 AM 25.0 °F 20.7 °F 18.0 °F 75% 30.25 in 10.0 mi SSW 3.5 mph - N/A   Clear
1:53 AM 23.0 °F - 17.1 °F 78% 30.25 in 10.0 mi Calm Calm - N/A   Clear
2:53 AM 21.0 °F 16.2 °F 16.0 °F 81% 30.25 in 10.0 mi South 3.5 mph - N/A   Clear
3:53 AM 21.0 °F 16.2 °F 15.1 °F 78% 30.27 in 10.0 mi South 3.5 mph - N/A   Clear
4:53 AM 19.9 °F 14.9 °F 14.0 °F 78% 30.28 in 10.0 mi South 3.5 mph - N/A   Clear
5:53 AM 19.0 °F - 12.9 °F 77% 30.32 in 10.0 mi Calm Calm - N/A   Clear
6:53 AM 19.0 °F 13.9 °F 12.0 °F 74% 30.35 in 10.0 mi SSW 3.5 mph - N/A   Clear
7:53 AM 18.0 °F 12.7 °F 10.9 °F 74% 30.37 in 10.0 mi South 3.5 mph - N/A   Clear
8:53 AM 24.1 °F 19.7 °F 16.0 °F 71% 30.36 in 10.0 mi South 3.5 mph - N/A   Clear
9:53 AM 35.1 °F - 19.0 °F 52% 30.32 in 10.0 mi Calm Calm - N/A   Clear
10:53 AM 44.1 °F 41.5 °F 25.0 °F 47% 30.28 in 10.0 mi NE 4.6 mph - N/A   Clear
11:53 AM 48.9 °F - 27.0 °F 43% 30.23 in 10.0 mi NNE 4.6 mph - N/A   Clear
12:53 PM 50.0 °F - 28.0 °F 43% 30.21 in 10.0 mi NE 9.2 mph - N/A   Clear
1:53 PM 52.0 °F - 26.1 °F 37% 30.19 in 10.0 mi NE 9.2 mph - N/A   Clear
2:53 PM 57.0 °F - 6.1 °F 13% 30.18 in 10.0 mi Variable 4.6 mph - N/A   Clear
3:53 PM 48.9 °F - 19.9 °F 32% 30.20 in 10.0 mi Calm Calm - N/A   Clear
4:53 PM 41.0 °F - 24.1 °F 51% 30.25 in 10.0 mi Calm Calm - N/A   Clear
5:53 PM 36.0 °F - 19.0 °F 50% 30.28 in 10.0 mi Calm Calm - N/A   Clear
6:53 PM 30.9 °F - 19.0 °F 61% 30.32 in 10.0 mi Calm Calm - N/A   Clear
7:53 PM 30.0 °F - 17.1 °F 59% 30.34 in 10.0 mi Calm Calm - N/A   Clear
8:53 PM 28.0 °F 24.2 °F 16.0 °F 61% 30.33 in 10.0 mi SSW 3.5 mph - N/A   Clear
9:53 PM 27.0 °F 23.0 °F 15.1 °F 61% 30.30 in 10.0 mi SSW 3.5 mph - N/A   Clear
10:53 PM 27.0 °F - 15.1 °F 61% 30.28 in 10.0 mi Calm Calm - N/A   Clear
11:53 PM 24.1 °F 19.7 °F 15.1 °F 69% 30.27 in 10.0 mi South 3.5 mph - N/A   Clear